This demonstration page uses our WeatherBlox Daily Observations layout. Learn more.

Hourly Observations for May 3, 2018

Temp ( °F °C ) Dew Point ( °F °C ) Humidity (%) Winds ( mph kmh ) Pressure ( in mb ) Visibility ( mi km ) Precip ( " mm )
12:21 am 00:21 Clear with Light Rain 53 11.7 52 11.1 96 96 WNW 3 6 29.88 1012 2 3.21868 0 0.0254
12:43 am 00:43 Clear with Mist and Fog 53 11.7 52 11.1 96 96 NNW 6 9 29.88 1012 3 4.82802 0 0.0254
12:49 am 00:49 Clear with Mist and Fog 52 11 52 11 100 100 N 5 7 29.88 1012 1.75 2.816345 0 0.0254
12:54 am 00:54 Mostly Cloudy with Fog 48 8.9 48 8.9 100 100 NNW 5 7 29.89 1012 0.5 0.80467 0 0.0254
1:10 am 01:10 Partly Cloudy with Light Rain 48 8.9 47 8.3 96 96 NNW 3 6 29.91 1013 0.5 0.80467 0 0.0254
1:51 am 01:51 Mostly Cloudy with Light Rain 48 9 48 9 100 100 N 3 6 29.88 1012 0.25 0.402335 0 0.0254
1:54 am 01:54 Cloudy with Light Rain 49 9.4 49 9.4 100 100 N 3 6 29.88 1012 0.25 0.402335 0 0.0254
2:51 am 02:51 Cloudy with Fog 48 9 48 9 100 100 N 6 9 29.83 1010 0.25 0.402335 0 0.0254
2:54 am 02:54 Cloudy with Fog 49 9.4 49 9.4 100 100 N 6 9 29.84 1010 0.25 0.402335 0 0.0254
3:04 am 03:04 Cloudy with Fog 49 9.4 49 9.4 100 100 N 7 11 29.83 1010 0.25 0.402335 0 0
3:06 am 03:06 Cloudy with Fog 50 10 49 9.4 96 96 NNW 7 11 29.83 1010 0.5 0.80467 0 0
3:19 am 03:19 Cloudy with Mist and Fog 51 10.6 50 10 96 96 N 6 9 29.83 1010 1.75 2.816345 0 0
3:26 am 03:26 Cloudy with Mist and Fog 51 10.6 51 10.6 100 100 Calm 29.85 1011 2 3.21868 0 0
3:43 am 03:43 Cloudy with Light Rain 51 10.6 51 10.6 100 100 ENE 5 7 29.85 1011 3 4.82802 0 0.0254
3:54 am 03:54 Cloudy with Mist and Fog 52 11.1 51 10.6 97 97 NNE 5 7 29.85 1011 5 8.0467 0 0.0254
4:54 am 04:54 Cloudy with Mist and Fog 52 11.1 51 10.6 97 97 NNE 5 7 29.85 1011 4 6.43736 0 0.0254
5:04 am 05:04 Cloudy with Mist and Fog 52 11.1 51 10.6 97 97 NNE 7 11 29.85 1011 5 8.0467 0 0
5:54 am 05:54 Cloudy with Mist and Fog 53 11.7 51 10.6 93 93 N 5 7 29.85 1011 4 6.43736 0 0
6:50 am 06:50 Cloudy with Mist and Fog 54 12 52 11 94 94 N 6 9 29.85 1011 4 6.43736 0 0
6:54 am 06:54 Cloudy with Mist and Fog 53 11.7 52 11.1 96 96 N 6 9 29.85 1011 4 6.43736 0 0
7:07 am 07:07 Cloudy with Mist and Fog 53 11.7 52 11.1 96 96 N 8 13 29.85 1011 2 3.21868 0 0
7:54 am 07:54 Cloudy with Mist and Fog 54 12.2 52 11.1 93 93 NNE 7 11 29.85 1011 2 3.21868 0 0.0254
8:23 am 08:23 Cloudy with Light Rain 54 12.2 52 11.1 93 93 NNW 10 17 29.88 1012 1.5 2.41401 0 0.0254
8:41 am 08:41 Cloudy with Nearby Thunderstorms 54 12.2 52 11.1 93 93 N 14 22 29.85 1011 1.25 2.011675 0.01 0.254
8:54 am 08:54 Cloudy with Light Rain 54 12.2 53 11.7 97 97 N 12 19 29.86 1011 1 1.60934 0.02 0.508
9:42 am 09:42 Cloudy with Light Rain 55 12.8 54 12.2 96 96 NNE 10 17 29.85 1011 1.75 2.816345 0 0.0254
9:50 am 09:50 Cloudy with Light Rain 55 13 54 12 94 94 NE 15 24 29.83 1010 2 3.21868 0.01 0.254
9:54 am 09:54 Cloudy with Light Rain 56 13.3 54 12.2 93 93 NE 17 28 29.81 1009 1.75 2.816345 0.01 0.254
10:05 am 10:05 Cloudy with Light Rain 56 13.3 55 12.8 97 97 NE 15 24 29.83 1010 2.5 4.02335 0 0.0254
10:17 am 10:17 Cloudy with Light Rain 56 13.3 55 12.8 97 97 ENE 13 20 29.83 1010 3 4.82802 0 0.0254
10:46 am 10:46 Cloudy with Light Rain 57 13.9 55 12.8 93 93 ENE 17 28 29.77 1008 5 8.0467 0 0.0254
10:54 am 10:54 Cloudy with Light Rain 58 14.4 57 13.9 97 97 ENE 15 24 29.78 1008 5 8.0467 0 0.0254
11:15 am 11:15 Cloudy with Light Rain 58 14.4 56 13.3 93 93 E 14 22 29.8 1009 6 9.65604 0 0.0254
11:31 am 11:31 Cloudy with Light Rain 58 14.4 57 13.9 97 97 E 13 20 29.8 1009 5 8.0467 0 0.0254
11:54 am 11:54 Cloudy with Light Rain 59 15 58 14.4 96 96 E 10 17 29.76 1008 5 8.0467 0 0.0254
12:14 pm 12:14 Cloudy with Light Rain 61 16.1 59 15 93 93 E 13 20 29.74 1007 7 11.26538 0 0.0254
12:46 pm 12:46 Cloudy with Light Rain 61 16.1 59 15 93 93 ESE 9 15 29.74 1007 4 6.43736 0 0.0254
12:54 pm 12:54 Cloudy with Light Rain 61 16.1 59 15 93 93 E 10 17 29.75 1007 3 4.82802 0 0.0254
1:54 pm 13:54 Cloudy with Light Rain 62 16.7 60 15.6 93 93 E 5 7 29.75 1007 4 6.43736 0 0.0254
2:18 pm 14:18 Cloudy with Light Rain 62 16.7 60 15.6 93 93 Calm 29.74 1007 2 3.21868 0 0.0254
2:36 pm 14:36 Cloudy with Light Rain 62 16.7 61 16.1 96 96 Calm 29.74 1007 1.75 2.816345 0.01 0.254
2:54 pm 14:54 Cloudy with Light Rain 64 17.8 62 16.7 93 93 NNW 3 6 29.74 1007 2.5 4.02335 0.02 0.508
3:01 pm 15:01 Cloudy with Light Rain 65 18.3 62 16.7 90 90 NNW 5 7 29.71 1006 3 4.82802 0 0.0254
3:31 pm 15:31 Cloudy with Light Rain 67 19.4 62 16.7 84 84 NNW 5 7 29.71 1006 4 6.43736 0 0.0254
3:51 pm 15:51 Cloudy with Light Rain 66 19 63 17 88 88 NNE 5 7 29.71 1006 4 6.43736 0 0.0254
3:54 pm 15:54 Cloudy with Light Rain 66 18.9 62 16.7 87 87 N 5 7 29.73 1007 4 6.43736 0 0.0254
4:54 pm 16:54 Cloudy with Light Rain 66 18.9 62 16.7 87 87 NW 13 20 29.71 1006 5 8.0467 0 0.0254
5:25 pm 17:25 Cloudy 64 17.8 60 15.6 87 87 NNW 16 26 29.71 1006 10 16.0934 0 0.0254
5:36 pm 17:36 Cloudy 64 17.8 59 15 84 84 N 20 31 29.71 1006 10 16.0934 0 0.0254
5:54 pm 17:54 Cloudy 63 17.2 59 15 87 87 NNE 21 33 29.73 1007 10 16.0934 0 0.0254
6:54 pm 18:54 Cloudy 62 16.7 58 14.4 86 86 N 13 20 29.75 1008 10 16.0934 0 0
7:54 pm 19:54 Cloudy with Light Rain 60 15.6 56 13.3 86 86 NNW 17 28 29.79 1009 10 16.0934 0 0.0254
8:32 pm 20:32 Cloudy with Light Rain 59 15 54 12.2 83 83 N 16 26 29.8 1009 6 9.65604 0 0.0254
8:42 pm 20:42 Cloudy with Light Rain 58 14.4 54 12.2 87 87 N 17 28 29.83 1010 6 9.65604 0 0.0254
8:54 pm 20:54 Cloudy with Light Rain 58 14.4 54 12.2 87 87 NNW 16 26 29.83 1010 6 9.65604 0 0.0254
9:39 pm 21:39 Cloudy with Light Rain 58 14.4 52 11.1 81 81 N 15 24 29.88 1012 8 12.87472 0 0.0254
9:54 pm 21:54 Cloudy with Light Rain 58 14.4 52 11.1 81 81 N 13 20 29.87 1011 8 12.87472 0 0.0254
10:27 pm 22:27 Cloudy with Light Rain 57 13.9 51 10.6 81 81 NNW 14 22 29.91 1013 8 12.87472 0 0.0254
10:54 pm 22:54 Cloudy with Light Rain 57 13.9 51 10.6 81 81 NNW 8 13 29.9 1012 8 12.87472 0 0.0254
11:54 pm 23:54 Clear 55 12.8 50 10 83 83 NW 12 19 29.91 1013 N/A 0 0.0254

Powered by AerisWeather